WD9JR Weather Reports


time (UTC)temp
C
wind
direction
speed
KPH
gust
KPH
rain 1hr
cm
rain 24hr
cm
rain mn
cm
humidity
%
barometer
mb
20260503173100 15 45 9.7 19.3 0.00 0.00 0.00 29 1017.5
20260503171532 15 108 4.8 25.7 0.00 0.00 0.00 29 1017.6
20260503160120 15 106 4.8 14.5 0.00 0.00 0.00 33 1018.5
20260503081513 2 145 0.0 0.0 0.00 0.00 0.00 55 1018.7
20260503071510 1 145 0.0 1.6 0.00 0.00 0.00 55 1018.7
20260503054555 2 145 0.0 1.6 0.00 0.00 0.00 56 1019.1
20260503053054 2 145 0.0 0.0 0.00 0.00 0.00 57 1019.2
20260503051553 2 145 0.0 1.6 0.00 0.00 0.00 58 1019.3
20260503050049 1 145 0.0 1.6 0.00 0.00 0.00 59 1019.4
20260503044548 1 145 0.0 0.0 0.00 0.00 0.00 60 1019.2
20260503043047 1 145 0.0 0.0 0.00 0.00 0.00 61 1019.2
20260503041548 2 145 0.0 0.0 0.00 0.00 0.00 61 1019.1
20260503040050 2 145 0.0 0.0 0.00 0.00 0.00 62 1019.2
20260503034558 2 145 0.0 0.0 0.00 0.00 0.00 63 1019.2
20260503033044 2 145 0.0 0.0 0.00 0.00 0.00 63 1019.2
20260503031542 2 145 0.0 0.0 0.00 0.00 0.00 63 1019.3
20260503030050 2 145 0.0 0.0 0.00 0.00 0.00 62 1019.4
20260503024538 3 145 0.0 0.0 0.00 0.00 0.00 61 1019.3
20260503023037 3 145 0.0 0.0 0.00 0.00 0.00 59 1019.3
20260503021542 4 145 0.0 0.0 0.00 0.00 0.00 57 1019.2
20260503020040 4 145 0.0 0.0 0.00 0.00 0.00 57 1019.1
20260503014540 5 145 0.0 0.0 0.00 0.00 0.00 54 1018.9
20260503013036 5 145 0.0 0.0 0.00 0.00 0.00 50 1018.9
20260503011536 6 145 0.0 0.0 0.00 0.00 0.00 49 1018.8
20260503010040 7 145 0.0 0.0 0.00 0.00 0.00 46 1018.7
20260503004535 7 145 0.0 0.0 0.00 0.00 0.00 39 1018.6
20260503003037 8 145 0.0 0.0 0.00 0.00 0.00 38 1018.6
20260503001534 8 145 0.0 3.2 0.00 0.00 0.00 36 1018.5
20260503000035 9 145 0.0 4.8 0.00 0.00 0.00 34 1018.3
20260502234533 9 144 1.6 6.4 0.00 0.00 0.00 32 1018.2
20260502233036 9 150 6.4 11.3 0.00 0.00 0.00 34 1018.1
20260502231532 10 174 9.7 17.7 0.00 0.00 0.00 36 1018.3
20260502230030 9 153 6.4 11.3 0.00 0.00 0.00 33 1018.4
20260502224528 9 137 4.8 17.7 0.00 0.00 0.00 32 1018.4
20260502223028 10 150 9.7 19.3 0.00 0.00 0.00 31 1018.5
20260502221527 10 157 6.4 16.1 0.00 0.00 0.00 34 1018.5
20260502220028 10 162 4.8 11.3 0.00 0.00 0.00 33 1018.4
20260502214530 9 157 6.4 14.5 0.00 0.00 0.00 32 1018.4
20260502213023 10 156 11.3 20.9 0.00 0.00 0.00 35 1018.3
20260502211529 10 165 17.7 20.9 0.00 0.00 0.00 35 1018.2
20260502210020 10 174 8.0 17.7 0.00 0.00 0.00 36 1018.3
20260502204519 10 161 12.9 17.7 0.00 0.00 0.00 35 1018.4
20260502203018 10 184 6.4 17.7 0.00 0.00 0.00 36 1018.3
20260502201517 10 154 6.4 16.1 0.00 0.00 0.00 37 1018.5
20260502200014 10 150 8.0 19.3 0.00 0.00 0.00 35 1018.6
20260502194513 10 155 12.9 24.1 0.00 0.00 0.00 36 1018.7
20260502193013 10 189 14.5 24.1 0.00 0.00 0.00 43 1018.7
20260502191519 10 174 9.7 20.9 0.00 0.00 0.00 37 1018.9
20260502190024 10 203 8.0 20.9 0.00 0.00 0.00 38 1019.0
20260502184514 10 148 11.3 19.3 0.00 0.00 0.00 40 1019.0
20260502183008 9 143 4.8 20.9 0.00 0.00 0.00 34 1019.2
20260502181506 9 155 12.9 20.9 0.00 0.00 0.00 37 1019.2